SWA1784 KMDW-TJSJ

Flight info

Callsign SWA1784
Flight time N/A
Altitude 33000
Route EARND DCT ELANR DCT EMMLY DCT ETAME DCT EMEGE DCT FLM DCT TAFTT DCT JOTTA DCT LILLS DCT OGGRE/N0452F340 DCT OZENA/N0452F350 DCT NUCAR Y355 RENAH Y185 COUKY DCT FIPEK Y355 PLING RTE7 SAALR
Aircraft B738/M-SDE2E3FGHIRWXY/LB1

Departure

Time 2026-05-07 00:47
Airport Chicago Midway International Airport (KMDW)

Arrival

Time N/A
Airport Luis Munoz Marin International Airport (TJSJ)
Time Latitude Longitude Altitude Speed Heading
2026-05-06 23:54 41.78670 -87.74478 612 ft 0 kts 313°
2026-05-07 00:39 41.78667 -87.74474 612 ft 2 kts 313°
2026-05-07 00:39 41.78657 -87.74460 612 ft 2 kts 313°
2026-05-07 00:39 41.78647 -87.74445 612 ft 2 kts 313°
2026-05-07 00:40 41.78640 -87.74437 612 ft 1 kts 301°
2026-05-07 00:40 41.78639 -87.74418 612 ft 2 kts 243°
2026-05-07 00:40 41.78644 -87.74410 612 ft 1 kts 216°
2026-05-07 00:40 41.78648 -87.74405 612 ft 0 kts 223°
2026-05-07 00:42 41.78648 -87.74406 612 ft 0 kts 223°
2026-05-07 00:42 41.78645 -87.74409 612 ft 0 kts 224°
2026-05-07 00:42 41.78641 -87.74414 612 ft 0 kts 225°
2026-05-07 00:43 41.78628 -87.74432 612 ft 8 kts 225°
2026-05-07 00:43 41.78579 -87.74499 612 ft 9 kts 223°
2026-05-07 00:43 41.78529 -87.74558 611 ft 9 kts 221°
2026-05-07 00:43 41.78508 -87.74585 612 ft 0 kts 230°
2026-05-07 00:44 41.78497 -87.74589 612 ft 6 kts 187°
2026-05-07 00:44 41.78431 -87.74537 612 ft 13 kts 131°
2026-05-07 00:44 41.78370 -87.74444 612 ft 14 kts 131°
2026-05-07 00:44 41.78282 -87.74366 612 ft 14 kts 166°
2026-05-07 00:45 41.78186 -87.74360 611 ft 12 kts 180°
2026-05-07 00:45 41.78091 -87.74361 612 ft 15 kts 181°
2026-05-07 00:45 41.77990 -87.74360 612 ft 13 kts 179°
2026-05-07 00:45 41.77942 -87.74405 613 ft 6 kts 303°
2026-05-07 00:46 41.77951 -87.74417 613 ft 0 kts 316°
2026-05-07 00:46 41.78047 -87.74548 615 ft 53 kts 314°
2026-05-07 00:47 41.78467 -87.75138 612 ft 118 kts 314°
2026-05-07 00:47 41.79133 -87.76087 894 ft 146 kts 312°
2026-05-07 00:47 41.79779 -87.77039 1678 ft 139 kts 310°
2026-05-07 00:47 41.80189 -87.78223 2003 ft 155 kts 272°
2026-05-07 00:48 41.79678 -87.79584 2392 ft 180 kts 232°
2026-05-07 00:48 41.78687 -87.80716 2767 ft 195 kts 227°
2026-05-07 00:48 41.77502 -87.81725 3147 ft 217 kts 201°
2026-05-07 00:48 41.75965 -87.81765 3695 ft 228 kts 176°
2026-05-07 00:49 41.74420 -87.81234 4327 ft 233 kts 159°
2026-05-07 00:49 41.72993 -87.80164 4910 ft 239 kts 151°
2026-05-07 00:49 41.71541 -87.78960 5275 ft 255 kts 150°
2026-05-07 00:49 41.69973 -87.77668 5715 ft 269 kts 150°
2026-05-07 00:50 41.68389 -87.76368 6459 ft 269 kts 151°
2026-05-07 00:50 41.66806 -87.75060 7156 ft 271 kts 151°
2026-05-07 00:50 41.65184 -87.73709 7710 ft 281 kts 150°
2026-05-07 00:50 41.63477 -87.72289 8154 ft 296 kts 150°
2026-05-07 00:51 41.61727 -87.70828 8862 ft 299 kts 151°
2026-05-07 00:51 41.59964 -87.69344 9568 ft 302 kts 151°
2026-05-07 00:51 41.58147 -87.67907 10278 ft 304 kts 155°
2026-05-07 00:51 41.56237 -87.66544 10587 ft 321 kts 156°
2026-05-07 00:52 41.54220 -87.65152 10966 ft 335 kts 157°
2026-05-07 00:52 41.52120 -87.63692 11600 ft 340 kts 157°
2026-05-07 00:52 41.50057 -87.62237 12286 ft 343 kts 157°
2026-05-07 00:52 41.47928 -87.60703 12953 ft 346 kts 157°
2026-05-07 00:53 41.45815 -87.59148 13594 ft 350 kts 157°
2026-05-07 00:53 41.43644 -87.57681 14143 ft 351 kts 163°
2026-05-07 00:53 41.41375 -87.56585 14810 ft 347 kts 172°
2026-05-07 00:53 41.39047 -87.55991 15485 ft 339 kts 182°
2026-05-07 00:54 41.36694 -87.55746 16109 ft 338 kts 186°
2026-05-07 00:54 41.34321 -87.55557 16665 ft 343 kts 185°
2026-05-07 00:54 41.31936 -87.55297 17405 ft 342 kts 184°
2026-05-07 00:54 41.29551 -87.54962 17988 ft 346 kts 183°
2026-05-07 00:55 41.27139 -87.54580 18404 ft 353 kts 182°
2026-05-07 00:55 41.24701 -87.54161 19041 ft 354 kts 182°
2026-05-07 00:55 41.22253 -87.53729 19573 ft 356 kts 182°
2026-05-07 00:55 41.19765 -87.53282 20064 ft 360 kts 182°
2026-05-07 00:56 41.17285 -87.52720 20649 ft 363 kts 180°
2026-05-07 00:56 41.14795 -87.52055 21131 ft 367 kts 179°
2026-05-07 00:56 41.12288 -87.51347 21643 ft 370 kts 179°
2026-05-07 00:56 41.09727 -87.50630 22008 ft 375 kts 179°
2026-05-07 00:57 41.07181 -87.49918 22489 ft 377 kts 180°
2026-05-07 00:57 41.04581 -87.49204 22892 ft 381 kts 180°
2026-05-07 00:57 41.01984 -87.48493 23400 ft 381 kts 180°
2026-05-07 00:57 40.99356 -87.47783 23791 ft 385 kts 180°
2026-05-07 00:58 40.96748 -87.47077 24246 ft 385 kts 181°
2026-05-07 00:58 40.94121 -87.46378 24558 ft 389 kts 181°
2026-05-07 00:58 40.91484 -87.45666 25178 ft 383 kts 182°
2026-05-07 00:58 40.88830 -87.44950 25481 ft 386 kts 182°
2026-05-07 00:59 40.83584 -87.43547 26323 ft 386 kts 183°
2026-05-07 00:59 40.80948 -87.42851 26635 ft 389 kts 184°
2026-05-07 00:59 40.78265 -87.42145 27048 ft 388 kts 184°
2026-05-07 01:00 40.75606 -87.41426 27561 ft 385 kts 185°
2026-05-07 01:00 40.72973 -87.40725 27905 ft 386 kts 186°
2026-05-07 01:00 40.70343 -87.40035 28097 ft 392 kts 186°
2026-05-07 01:00 40.67662 -87.39334 28327 ft 395 kts 186°
2026-05-07 01:01 40.64977 -87.38618 28858 ft 390 kts 187°
2026-05-07 01:01 40.62291 -87.37907 29078 ft 394 kts 186°
2026-05-07 01:01 40.59601 -87.37193 29502 ft 392 kts 187°
2026-05-07 01:01 40.56912 -87.36481 29805 ft 393 kts 188°
2026-05-07 01:02 40.54229 -87.35775 30244 ft 390 kts 187°
2026-05-07 01:02 40.51584 -87.35078 30427 ft 393 kts 188°
2026-05-07 01:02 40.48872 -87.34338 30645 ft 399 kts 187°
2026-05-07 01:02 40.46124 -87.33318 30818 ft 417 kts 181°
2026-05-07 01:03 40.43372 -87.31868 31112 ft 433 kts 174°
2026-05-07 01:03 40.40709 -87.30007 31342 ft 449 kts 168°
2026-05-07 01:03 40.38032 -87.27711 31499 ft 463 kts 163°
2026-05-07 01:03 40.35427 -87.25215 31679 ft 471 kts 162°
2026-05-07 01:04 40.32792 -87.22586 31886 ft 474 kts 161°
2026-05-07 01:04 40.30201 -87.19984 32088 ft 475 kts 161°
2026-05-07 01:04 40.27583 -87.17383 32402 ft 472 kts 162°
2026-05-07 01:04 40.24931 -87.14782 32679 ft 470 kts 162°
2026-05-07 01:05 40.22313 -87.12252 32988 ft 467 kts 163°
2026-05-07 01:05 40.17062 -87.07291 33024 ft 466 kts 164°
2026-05-07 01:06 40.11768 -87.02356 33026 ft 469 kts 164°
2026-05-07 01:06 40.06429 -86.97414 33027 ft 468 kts 164°
2026-05-07 01:07 40.01105 -86.92492 33028 ft 468 kts 164°
2026-05-07 01:07 39.95804 -86.87678 33027 ft 462 kts 166°
2026-05-07 01:08 39.90501 -86.83255 33026 ft 453 kts 168°
2026-05-07 01:08 39.85118 -86.78953 33024 ft 457 kts 168°
2026-05-07 01:09 39.79699 -86.74613 33024 ft 459 kts 168°
2026-05-07 01:09 39.74260 -86.70121 33026 ft 472 kts 163°
2026-05-07 01:09 39.71701 -86.67371 33025 ft 495 kts 153°
2026-05-07 01:10 39.69447 -86.63842 33034 ft 525 kts 141°